Powrót do katalogu

COSMOS 2251 DEB

AktywnyVLEO
NORAD 35071·DEBRIS·🇷🇺 Russia

Wystrzelony Jun 16, 1993 z Plesetsk Cosmodrome

Loading…

Następne Przeloty (najbliższe 24 godziny)

TLE

Starzejące sięSource: Space-Track

Epoka: Sep 10, 2026, 11:59 UTC

1 35071U 93036AJA 26253.49992605  .00007974  00000-0  48307-3 0  9991
2 35071  73.9329 331.8199 0060153 163.2114 197.1088 15.09194158716290

Śledź COSMOS 2251 DEB w czasie rzeczywistym z AllMySat

Download on the App Store